Temp
49 55 55 54 54 55 54 57 56 56 56 55 55 55 54 54 53 53 52 52 52 51 51 51 51 51 51
46 49 54 56 54 51 50 52 54 54 55 54 54 54 53 53 52 52 51 50 50 49 49 49 49 49 50
44 49 52 55 52 47 49 49 50 52 54 53 53 53 53 52 51 51 50 49 48 47 47 46 47 47 48
49 48 50 49 54 49 44 45 46 50 51 52 52 52 52 52 50 49 48 48 48 47 46 45 45 45 45
49 47 47 47 50 53 49 42 43 45 44 47 49 49 50 51 49 47 47 47 47 47 46 45 44 44 44
49 49 49 51 53 51 49 43 41 43 45 41 44 44 46 51 49 48 47 47 47 46 45 45 44 43 43
50 51 50 51 51 48 49 48 46 42 45 40 40 42 43 45 47 47 47 47 47 46 45 44 44 43 41
55 54 55 53 53 52 51 47 39 39 45 41 39 41 40 43 46 47 47 47 46 46 45 44 43 42 40
50 49 49 51 52 50 42 41 37 36 37 43 37 41 39 41 44 47 47 47 46 46 44 44 42 40 39
46 47 49 50 48 51 47 43 42 35 37 40 36 38 37 40 42 43 47 47 46 46 44 44 42 40 40
46 46 47 48 48 49 48 48 43 42 41 42 35 37 37 35 37 40 43 44 46 45 45 43 41 39 39
43 42 43 43 44 43 45 45 47 43 41 44 34 37 35 33 34 36 39 40 41 40 39 40 39 38 37
41 40 42 44 40 38 37 38 38 39 41 40 37 35 36 35 33 33 34 35 38 37 36 35 35 35 33
42 40 36 36 37 37 35 35 35 32 36 38 38 37 34 36 35 32 34 32 34 35 34 34 34 34 34
37 36 35 35 35 36 35 35 33 31 31 32 35 36 35 34 32 33 32 31 33 31 32 30 32 33 33
38 37 36 35 33 34 34 35 33 32 30 30 31 32 32 33 36 31 32 30 31 31 30 30 29 31 32
38 37 36 35 34 33 34 34 32 33 32 31 33 34 32 31 29 35 30 29 28 28 29 29 28 29 31
MSLP
1024.24 1024.62 1025.41 1026.37 1027.17 1027.80 1028.51 1029.23 1029.88 1030.30 1030.91 1031.58 1031.88 1032.99 1033.55 1033.99 1034.34 1034.57 1034.85 1035.01 1035.15 1035.37 1035.53 1035.45 1035.29 1035.27 1035.11
1023.80 1024.47 1024.69 1025.59 1026.56 1027.65 1028.55 1029.15 1029.71 1030.27 1030.76 1031.49 1032.00 1032.85 1033.46 1033.79 1034.14 1034.50 1034.77 1035.07 1035.29 1035.58 1035.72 1035.71 1035.62 1035.48 1035.23
1022.86 1023.88 1024.65 1025.12 1026.26 1027.72 1028.47 1029.21 1029.72 1030.14 1030.70 1031.22 1031.83 1032.59 1033.27 1033.70 1034.13 1034.38 1034.79 1035.14 1035.26 1035.49 1035.78 1035.87 1035.80 1035.72 1035.49
1021.92 1023.09 1023.85 1024.90 1025.36 1026.77 1028.58 1029.31 1029.99 1030.18 1030.57 1031.07 1031.67 1032.32 1032.93 1033.48 1033.95 1034.28 1034.56 1034.80 1035.09 1035.40 1035.68 1035.83 1035.93 1035.88 1035.71
1021.25 1022.38 1023.33 1024.12 1024.23 1025.41 1027.40 1028.98 1030.08 1030.16 1030.66 1031.00 1031.52 1032.15 1032.74 1033.23 1033.64 1034.11 1034.43 1034.55 1034.82 1035.16 1035.51 1035.76 1035.96 1035.99 1035.84
1019.92 1020.76 1021.62 1022.66 1023.77 1024.74 1026.34 1028.16 1029.35 1029.77 1029.96 1031.12 1031.28 1031.88 1032.30 1032.67 1033.23 1033.68 1034.13 1034.40 1034.65 1034.97 1035.36 1035.76 1035.95 1035.93 1035.85
1017.82 1019.03 1020.24 1021.27 1022.80 1024.34 1024.99 1026.44 1027.59 1028.88 1029.22 1030.74 1031.51 1031.63 1032.02 1032.45 1032.78 1033.15 1033.62 1033.97 1034.28 1034.74 1035.20 1035.60 1035.80 1035.93 1035.83
1016.64 1018.05 1018.92 1020.14 1020.93 1022.25 1023.94 1026.11 1028.29 1028.97 1028.78 1029.81 1031.10 1031.28 1031.81 1031.98 1032.33 1032.62 1033.02 1033.45 1033.84 1034.38 1034.90 1035.28 1035.43 1035.66 1035.92
1016.72 1017.93 1018.99 1019.82 1021.04 1022.71 1024.40 1025.72 1027.29 1028.41 1029.03 1028.84 1030.25 1030.90 1031.65 1031.69 1031.97 1032.20 1032.45 1032.90 1033.42 1033.96 1034.44 1034.79 1035.13 1035.37 1035.76
1017.60 1018.72 1019.04 1019.78 1020.58 1021.03 1022.45 1024.02 1025.56 1027.60 1028.11 1028.67 1029.81 1030.52 1031.42 1031.03 1031.21 1031.66 1031.83 1032.29 1032.81 1033.48 1034.02 1034.30 1034.84 1035.03 1035.35
1017.11 1018.34 1019.05 1019.67 1020.62 1021.19 1021.94 1022.53 1023.98 1025.21 1026.02 1026.83 1028.64 1029.53 1030.14 1030.58 1031.10 1031.32 1031.52 1031.89 1032.30 1032.97 1033.58 1034.05 1034.65 1034.92 1034.97
1016.90 1017.92 1018.53 1019.40 1020.25 1021.53 1021.81 1022.57 1023.25 1023.87 1024.97 1025.46 1026.95 1027.66 1028.81 1030.12 1030.62 1031.29 1031.39 1031.75 1032.06 1032.60 1033.26 1033.93 1034.48 1034.76 1034.92
1016.21 1016.95 1017.74 1018.75 1020.12 1021.83 1022.61 1023.19 1023.84 1024.47 1024.80 1025.43 1025.91 1026.88 1027.58 1028.48 1029.58 1030.36 1030.95 1031.69 1031.98 1032.50 1033.31 1033.85 1034.13 1034.56 1034.79
1014.85 1016.57 1018.14 1019.07 1019.91 1021.06 1022.02 1023.37 1023.92 1025.24 1025.79 1025.75 1025.95 1026.30 1027.47 1028.07 1028.42 1029.55 1030.11 1030.73 1031.67 1032.36 1032.90 1033.58 1034.04 1034.30 1034.52
1014.68 1016.10 1017.47 1018.42 1019.69 1020.48 1021.33 1022.58 1023.26 1024.45 1025.58 1026.17 1026.32 1026.72 1027.22 1027.74 1028.54 1029.07 1029.76 1030.55 1031.11 1032.14 1032.91 1033.50 1033.78 1034.07 1034.32
1014.01 1014.92 1016.23 1017.52 1018.70 1019.80 1020.86 1021.46 1022.41 1023.51 1024.55 1025.51 1026.02 1026.71 1027.66 1028.36 1028.07 1028.75 1029.60 1030.17 1030.98 1031.81 1032.48 1033.02 1033.48 1033.80 1034.07
1012.98 1013.90 1015.38 1016.74 1017.83 1019.13 1019.99 1020.93 1021.91 1022.75 1023.75 1024.73 1025.13 1025.39 1026.60 1027.69 1028.67 1028.51 1028.76 1029.83 1030.59 1031.66 1032.16 1032.61 1032.98 1033.34 1033.76
Wind_Speed
3 10 14 11 11 9 9 8 7 18 19 18 20 15 14 12 11 9 8 6 5 3 3 4 6 7 8
6 8 12 15 14 10 6 6 8 16 19 18 18 17 16 14 13 11 9 7 5 4 3 3 5 6 7
7 6 7 10 12 5 7 6 5 17 18 19 18 18 16 15 13 12 10 8 7 5 3 1 3 5 7
9 10 9 7 12 11 6 3 5 7 10 12 15 16 16 16 14 12 11 10 8 7 4 2 2 4 6
10 9 9 10 15 11 10 6 2 3 4 6 7 7 9 13 11 12 12 11 9 8 5 3 0 2 4
11 14 15 13 13 12 10 8 8 3 6 5 6 7 7 8 14 15 14 12 11 9 7 4 2 2 2
19 17 16 16 16 14 14 13 10 6 7 5 4 7 5 6 17 18 16 14 12 10 8 6 3 2 1
15 14 13 18 20 17 15 10 5 3 6 7 5 6 5 6 16 18 17 16 14 12 10 7 4 2 1
11 14 15 23 17 12 9 11 5 4 6 4 5 4 4 6 8 18 18 17 15 14 11 8 6 4 1
11 12 18 20 26 18 15 14 9 3 6 7 5 6 4 5 9 9 9 17 16 15 13 10 8 3 2
11 10 11 13 12 11 14 13 12 4 9 9 6 6 1 3 3 7 8 8 8 10 15 11 8 5 2
11 10 11 11 11 8 10 6 6 2 13 13 5 7 6 4 4 4 7 6 6 6 6 8 6 4 3
12 10 10 10 11 9 7 9 7 4 10 8 5 7 4 4 6 6 7 6 5 7 6 6 4 3 3
12 9 8 9 9 8 7 7 5 4 3 3 6 8 4 3 4 8 6 6 8 6 6 4 4 3 3
11 11 10 10 8 9 7 8 4 7 6 3 6 7 5 6 4 5 8 4 7 7 5 4 3 4 4
11 12 12 12 11 9 8 9 8 8 7 6 8 6 3 5 5 8 5 5 7 8 4 4 3 4 4
12 13 12 10 15 11 10 9 8 8 8 8 10 9 7 5 2 2 7 6 8 6 4 2 3 5 4
Wind_Direction
131 172 160 160 159 156 153 154 156 146 146 147 139 151 159 165 164 165 163 158 146 118 65 40 28 19 12
143 166 168 169 155 149 148 145 150 157 154 153 147 160 170 174 174 174 175 165 151 122 75 41 25 17 11
148 166 157 171 154 125 150 140 153 160 163 160 160 169 176 179 181 180 178 172 165 153 132 57 19 15 10
153 156 164 171 170 162 162 141 149 172 167 164 165 173 183 183 188 183 183 183 181 178 175 167 21 10 8
156 158 170 170 184 171 174 151 146 159 142 163 163 171 181 188 185 178 189 193 189 193 194 204 198 355 353
163 179 182 177 179 173 162 172 188 194 162 167 161 177 178 189 189 189 194 199 197 200 201 213 224 297 344
173 184 174 174 171 173 180 191 194 160 172 163 181 188 176 185 192 193 196 200 202 202 201 209 220 287 327
177 179 175 170 177 181 171 154 77 129 187 189 172 200 179 190 203 200 199 200 202 202 199 205 190 222 298
142 146 153 162 162 146 159 165 155 180 203 155 158 172 191 202 204 209 203 203 203 201 199 198 187 168 217
134 140 151 163 166 176 166 178 166 159 188 166 151 147 198 199 199 200 201 204 203 199 199 193 188 186 220
140 150 159 163 175 178 175 178 176 186 177 155 162 164 191 134 176 195 190 193 198 196 202 184 195 200 216
153 161 163 168 173 172 167 157 169 130 163 172 148 166 148 147 160 166 185 190 173 160 145 160 177 185 207
172 168 173 159 135 129 102 103 96 102 167 175 152 150 146 145 155 167 152 187 172 157 159 170 180 173 172
167 144 130 144 153 156 143 160 122 115 115 151 144 145 137 145 139 156 153 166 169 167 158 162 164 177 184
152 152 153 150 155 161 143 160 140 152 153 123 105 93 72 136 128 156 152 127 162 144 144 164 181 183 194
160 157 162 164 158 162 158 175 165 161 157 156 147 120 110 67 63 146 143 135 148 150 142 164 174 188 197
165 162 159 160 155 168 167 173 166 162 161 160 170 163 160 165 111 42 141 144 143 148 156 153 153 172 190